Kalispell, MT

8:52 PM MDT on July 27, 2017 (GMT -0600)
Glacier Park International

Weather History for KGPI - January, 2015

Change the Weather History Date:

Sunday, January 4, 2015

  Actual Average Record
Temperature  
Mean Temperature 12 °F 22 °F  
Max Temperature 13 °F 29 °F 50 °F (2012)
Min Temperature 10 °F 15 °F -24 °F (1979)
Degree Days  
Heating Degree Days 53 43  
Month to date heating degree days 208 172  
Since 1 July heating degree days 3435 3686  
Cooling Degree Days 0 0  
Month to date cooling degree days 0 0  
Year to date cooling degree days 0 0  
Moisture  
Dew Point 7 °F    
Average Humidity 83    
Maximum Humidity 92    
Minimum Humidity 73    
Precipitation  
Precipitation 0.52 in 0.05 in 0.81 in (1937)
Month to date precipitation 0.66 0.20  
Year to date precipitation 0.66 0.20  
Snow  
Snow 6.90 in - - ()
Month to date snowfall 9.6  
Year to date snowfall 9.6  
Since 1 July snowfall 36.1  
Snow Depth 8.00 in    
Sea Level Pressure  
Sea Level Pressure 30.28 in    
Wind  
Wind Speed 13 mph (NNE)    
Max Wind Speed 24 mph    
Max Gust Speed 31 mph    
Visibility 2 miles    
Events Fog , Snow    
T = Trace of Precipitation, MM = Missing Value Source: NWS Daily Summary

Daily Weather History Graph

Daily Weather History Graph

Search for Another Location

Airport or City:

Trip Planner

Search our weather history database for the weather conditions in past years. The results will help you decide how hot, cold, wet, or windy it might be!

Date:

Astronomy

Jan. 04, 2015 Rise Set
Actual Time 8:27 AM MST 4:56 PM MST
Civil Twilight 7:51 AM MST 5:32 PM MST
Nautical Twilight 7:11 AM MST 6:12 PM MST
Astronomical Twilight 6:34 AM MST 6:50 PM MST
Moon 5:05 PM MST (1/4) 7:38 AM MST (1/4)
Length of Visible Light 9h 41m
Length of Day
8h 28m
Full, 100% of the Moon is Illuminated
Jan 4
Full
Jan 4
Full
Jan 13
Last Quarter
Jan 20
New
Jan 26
First Quarter

Hourly Weather History & Observations

Time (MST) Temp. Windchill Dew Point Humidity Pressure Visibility Wind Dir Wind Speed Gust Speed Precip Events Conditions
12:21 AM 12.9 °F -5.7 °F 8.1 °F 81% 30.18 in 2.5 mi NNE 21.9 mph - 0.00 in Snow Light Snow
12:45 AM 12.9 °F -4.9 °F 8.1 °F 81% 30.18 in 5.0 mi NNE 19.6 mph - 0.01 in Snow Light Snow
12:55 AM 12.9 °F -5.3 °F 8.1 °F 81% 30.33 in 6.0 mi NNE 20.7 mph - 0.01 in Snow Light Snow
1:20 AM 12.0 °F -5.6 °F 7.0 °F 80% 30.19 in 2.5 mi NNE 18.4 mph - 0.00 in Snow Light Snow
1:27 AM 12.0 °F -6.5 °F 7.0 °F 80% 30.20 in 1.8 mi NNE 20.7 mph - 0.00 in Snow Light Snow
1:55 AM 10.9 °F -8.8 °F 7.0 °F 84% 30.35 in 1.2 mi NNE 23.0 mph - 0.00 in Snow Light Snow
2:09 AM 10.9 °F -7.9 °F 7.0 °F 84% 30.19 in 1.5 mi NNE 20.7 mph 29.9 mph 0.00 in Snow Light Snow
2:20 AM 10.9 °F -7.5 °F 7.0 °F 84% 30.19 in 2.5 mi NNE 19.6 mph - 0.01 in Snow Light Snow
2:28 AM 10.9 °F -7.5 °F 6.1 °F 81% 30.20 in 4.0 mi NNE 19.6 mph - 0.01 in Snow Light Snow
2:51 AM 10.4 °F -8.2 °F 6.8 °F 85% 30.21 in 2.0 mi NNE 19.6 mph - 0.01 in Snow Light Snow
2:55 AM 10.9 °F -7.9 °F 6.1 °F 81% 30.36 in 2.0 mi NNE 20.7 mph - 0.01 in Snow Light Snow
3:35 AM 10.9 °F -7.5 °F 6.1 °F 81% 30.21 in 3.0 mi NNE 19.6 mph - 0.00 in Snow Light Snow
3:50 AM 10.4 °F -8.6 °F 5.0 °F 79% 30.21 in 2.0 mi NNE 20.7 mph - 0.00 in Snow Light Snow
3:55 AM 10.9 °F -7.9 °F 5.0 °F 77% 30.37 in 2.0 mi NNE 20.7 mph - 0.00 in Snow Light Snow
4:10 AM 10.9 °F -7.5 °F 6.1 °F 81% 30.21 in 2.0 mi North 19.6 mph - 0.00 in Snow Light Snow
4:18 AM 10.9 °F -7.5 °F 6.1 °F 81% 30.21 in 2.0 mi North 19.6 mph - 0.00 in Snow Light Snow
4:25 AM 10.9 °F -7.9 °F 6.1 °F 81% 30.21 in 1.8 mi NNE 20.7 mph - 0.00 in Snow Light Snow
4:35 AM 10.9 °F -7.5 °F 5.0 °F 77% 30.21 in 2.0 mi NNE 19.6 mph - 0.00 in Snow Light Snow
4:42 AM 10.9 °F -7.9 °F 5.0 °F 77% 30.20 in 3.0 mi North 20.7 mph - 0.00 in Snow Light Snow
4:50 AM 10.4 °F -8.6 °F 3.2 °F 73% 30.21 in 1.8 mi North 20.7 mph - 0.00 in Snow Light Snow
4:55 AM 10.0 °F -8.6 °F 5.0 °F 80% 30.37 in 1.8 mi NNE 19.6 mph - 0.00 in Snow Light Snow
5:05 AM 10.0 °F -8.6 °F 5.0 °F 80% 30.21 in 2.0 mi NNE 19.6 mph - 0.01 in Snow Light Snow
5:55 AM 10.0 °F -8.1 °F 5.0 °F 80% 30.38 in 2.5 mi North 18.4 mph - 0.01 in Snow Light Snow
6:19 AM 10.0 °F -7.1 °F 5.0 °F 80% 30.22 in 2.5 mi North 16.1 mph - 0.00 in Snow Light Snow
6:33 AM 10.0 °F -6.5 °F 3.9 °F 76% 30.23 in 3.0 mi North 15.0 mph - 0.01 in Snow Light Snow
6:43 AM 10.0 °F -8.1 °F 5.0 °F 80% 30.23 in 2.0 mi NNE 18.4 mph - 0.01 in Snow Light Snow
6:55 AM 10.4 °F -7.7 °F 5.0 °F 79% 30.23 in 2.0 mi NNE 18.4 mph - N/A Snow Light Snow
7:16 AM 10.0 °F -6.5 °F 5.0 °F 80% 30.24 in 3.0 mi North 15.0 mph - 0.00 in Snow Light Snow
7:26 AM 10.0 °F -7.1 °F 5.0 °F 80% 30.24 in 2.5 mi North 16.1 mph - 0.00 in Snow Light Snow
7:38 AM 10.0 °F -6.5 °F 3.9 °F 76% 30.24 in 4.0 mi North 15.0 mph - 0.00 in Snow Light Snow
7:55 AM 10.0 °F -6.5 °F 3.9 °F 76% 30.42 in 2.0 mi North 15.0 mph - 0.00 in Snow Light Snow
8:15 AM 10.9 °F -4.7 °F 3.9 °F 73% 30.26 in 4.0 mi North 13.8 mph - 0.00 in Snow Light Snow
8:55 AM 10.9 °F -5.9 °F 3.0 °F 70% 30.43 in 4.0 mi North 16.1 mph - 0.00 in Snow Light Snow
9:55 AM 10.9 °F -5.4 °F 3.0 °F 70% 30.46 in 4.0 mi North 15.0 mph - 0.00 in Snow Light Snow
10:12 AM 10.9 °F -2.6 °F 3.0 °F 70% 30.30 in 2.0 mi North 10.4 mph - 0.00 in Snow Light Snow
10:51 AM 10.4 °F -5.4 °F 3.2 °F 73% 30.31 in 1.5 mi North 13.8 mph - 0.00 in Snow Light Snow
10:55 AM 10.9 °F -4.7 °F 3.9 °F 73% 30.47 in 1.2 mi North 13.8 mph - 0.00 in Snow Light Snow
11:37 AM 10.9 °F -3.4 °F 6.1 °F 81% 30.31 in 2.0 mi North 11.5 mph - 0.01 in Snow Light Snow
11:55 AM 10.9 °F -4.1 °F 6.1 °F 81% 30.48 in 2.0 mi North 12.7 mph - 0.01 in Snow Light Snow
12:05 PM 10.9 °F -4.7 °F 5.0 °F 77% 30.31 in 1.8 mi North 13.8 mph - 0.00 in Snow Light Snow
12:17 PM 12.0 °F -2.7 °F 6.1 °F 77% 30.31 in 2.0 mi North 12.7 mph - 0.00 in Snow Light Snow
12:41 PM 12.0 °F -2.0 °F 6.1 °F 77% 30.31 in 2.0 mi NNE 11.5 mph - 0.01 in Snow Light Snow
12:55 PM 12.0 °F -2.0 °F 6.1 °F 77% 30.48 in 2.0 mi NNE 11.5 mph - 0.01 in Snow Light Snow
1:17 PM 12.0 °F -0.4 °F 6.1 °F 77% 30.32 in 2.0 mi North 9.2 mph - 0.00 in Snow Light Snow
1:55 PM 12.9 °F -1.6 °F 6.1 °F 74% 30.49 in 2.0 mi NNE 12.7 mph - 0.01 in Snow Light Snow
2:20 PM 12.0 °F -1.3 °F 7.0 °F 80% 30.31 in 2.0 mi NNE 10.4 mph - 0.00 in Snow Light Snow
2:55 PM 12.0 °F -0.4 °F 8.1 °F 84% 30.48 in 2.0 mi North 9.2 mph - 0.01 in Snow Light Snow
3:02 PM 12.0 °F -0.4 °F 8.1 °F 84% 30.31 in 1.2 mi North 9.2 mph - 0.01 in Snow Light Snow
3:51 PM 12.2 °F 0.7 °F 8.6 °F 85% 30.31 in 1.5 mi North 8.1 mph - 0.02 in Snow Light Snow
3:55 PM 12.0 °F 0.5 °F 8.1 °F 84% 30.48 in 1.5 mi NNE 8.1 mph - 0.02 in Snow Light Snow
4:06 PM 12.0 °F -1.3 °F 8.1 °F 84% 30.31 in 1.2 mi North 10.4 mph - 0.01 in Snow Light Snow
4:17 PM 12.0 °F -0.4 °F 8.1 °F 84% 30.31 in 1.5 mi NNE 9.2 mph - 0.01 in Snow Light Snow
4:45 PM 12.0 °F -0.4 °F 8.1 °F 84% 30.30 in 2.0 mi NNE 9.2 mph - 0.01 in Snow Light Snow
4:55 PM 12.0 °F 0.5 °F 8.1 °F 84% 30.47 in 1.8 mi NNE 8.1 mph - 0.01 in Snow Light Snow
5:04 PM 12.0 °F -0.4 °F 8.1 °F 84% 30.30 in 2.0 mi NNE 9.2 mph - 0.01 in Snow Light Snow
5:18 PM 12.0 °F 0.5 °F 8.1 °F 84% 30.30 in 2.5 mi NNE 8.1 mph - 0.01 in Snow Light Snow
5:37 PM 12.0 °F -0.4 °F 8.1 °F 84% 30.29 in 1.8 mi NNE 9.2 mph - 0.01 in Snow Light Snow
5:55 PM 12.0 °F 1.5 °F 9.0 °F 88% 30.45 in 1.5 mi NNE 6.9 mph - 0.02 in Snow Light Snow
6:05 PM 12.0 °F 0.5 °F 9.0 °F 88% 30.27 in 1.2 mi NNE 8.1 mph - 0.01 in Snow Light Snow
6:16 PM 12.0 °F 2.7 °F 9.0 °F 88% 30.27 in 1.5 mi NNE 5.8 mph - 0.01 in Snow Light Snow
6:28 PM 12.0 °F 1.5 °F 9.0 °F 88% 30.26 in 1.2 mi NNE 6.9 mph - 0.02 in Snow Light Snow
6:55 PM 12.0 °F 0.5 °F 9.0 °F 88% 30.41 in 1.2 mi NNE 8.1 mph - 0.03 in Snow Light Snow
7:33 PM 12.0 °F 2.7 °F 9.0 °F 88% 30.20 in 1.0 mi North 5.8 mph - 0.03 in Snow Light Snow
7:43 PM 12.0 °F 2.7 °F 9.0 °F 88% 30.19 in 0.8 mi NNE 5.8 mph - 0.04 in Snow Light Snow
7:55 PM 12.0 °F 2.7 °F 9.0 °F 88% 30.35 in 0.8 mi North 5.8 mph - 0.06 in Snow Light Snow
8:06 PM 12.0 °F -0.4 °F 9.0 °F 88% 30.18 in 1.0 mi NNE 9.2 mph - 0.01 in Snow Light Snow
8:18 PM 12.0 °F 0.5 °F 9.0 °F 88% 30.17 in 1.0 mi NNE 8.1 mph - 0.02 in Snow Light Snow
8:24 PM 12.0 °F 1.5 °F 9.0 °F 88% 30.16 in 0.8 mi NNE 6.9 mph - 0.03 in Snow Light Snow
8:55 PM 12.0 °F 1.5 °F 9.0 °F 88% 30.30 in 0.8 mi North 6.9 mph - 0.06 in Snow Light Snow
9:13 PM 12.0 °F 2.7 °F 9.0 °F 88% 30.12 in 1.0 mi NNE 5.8 mph - 0.02 in Snow Light Snow
9:20 PM 12.0 °F 4.1 °F 9.0 °F 88% 30.12 in 0.8 mi NE 4.6 mph - 0.03 in Snow Light Snow
9:31 PM 12.0 °F 2.7 °F 9.0 °F 88% 30.11 in 0.8 mi NNE 5.8 mph - 0.04 in Snow Light Snow
9:55 PM 12.0 °F 4.1 °F 9.0 °F 88% 30.25 in 0.8 mi NNE 4.6 mph - 0.07 in Snow Light Snow
10:55 PM 12.0 °F 5.9 °F 10.0 °F 92% 30.20 in 0.5 mi North 3.5 mph - 0.09 in Fog , Snow Snow
11:19 PM 12.0 °F - 10.0 °F 92% 30.03 in 0.8 mi Calm Calm - 0.03 in Snow Light Snow
11:55 PM 12.0 °F - 10.0 °F 92% 30.16 in 0.5 mi Calm Calm - 0.08 in Fog , Snow Snow